sat.trackr.live / text

‹ back to catalog

GSAT0222 (GALILEO 26)

NORAD 43565 · 2018-060B

PAYLOAD ACTIVE UNKNOWN

§ Identity

Operator
Country
ESA
Launch date
2018-07-25
Launch site
FRGUI
Launch vehicle
Mass (kg)
RCS (m²)

Purposes: earth_obs, nav

External: N2YO · Heavens-Above · Gunter

§ Orbital elements

Epoch: 2026-09-19T03:18:54.661824Z

Period
844.69 min
Inclination
57.1349°
Eccentricity
0.0006474
Mean motion
1.70475875 rev/d
Perigee alt
23,202.8 km
Apogee alt
23,241.1 km
Semi-major
29,600.1 km
B*
0.0000e+0
RAAN
339.2474°
Arg perigee
251.3713°
Mean anomaly
108.6116°
Rev number
5,081

§ Raw data

GSAT0222 (GALILEO 26)1 43565U 18060B   26262.13813266 -.00000092  00000+0  00000+0 0  99962 43565  57.1349 339.2474 0006474 251.3713 108.6116  1.70475875 50810

JSON: /api/v1/satellites/43565 · /tle

For live sub-satellite position, see the globe view (requires WebGL).

§ Visibility from observer

Set your observer location to see the next 7 days of passes ≥ 10°. The values pass through the URL so the page stays shareable.

No JS? Fill the form by hand. The geolocation button needs JavaScript.